Pine Bluff, AR

3:51 AM CDT on October 01, 2016 (GMT -0500)
Grider

Weather History for KPBF - October, 2013

Change the Weather History Date:

Wednesday, October 30, 2013

  Actual Average Record
Temperature  
Mean Temperature 67 °F 59 °F  
Max Temperature 72 °F 70 °F 91 °F (1937)
Min Temperature 62 °F 48 °F 25 °F (1917)
Degree Days  
Heating Degree Days 0 7  
Month to date heating degree days 118 118  
Since 1 July heating degree days 118 129  
Cooling Degree Days 2 1  
Month to date cooling degree days 90 74  
Year to date cooling degree days 2142 2118  
Growing Degree Days 16 (Base 50)    
Moisture  
Dew Point 63 °F    
Average Humidity 83    
Maximum Humidity 93    
Minimum Humidity 73    
Precipitation  
Precipitation 0.15 in 0.16 in 3.07 in (1926)
Month to date precipitation 2.77 4.83  
Year to date precipitation 40.88 40.71  
Snow  
Snow 0.00 in 0.00 in T in (1993)
Month to date snowfall 0.0 0.0  
Since 1 July snowfall 0.0 0.0  
Since 1 September snowfall 0.0 0.0  
Snow Depth 0.00 in    
Sea Level Pressure  
Sea Level Pressure 30.05 in    
Wind  
Wind Speed 8 mph (SSE)    
Max Wind Speed 21 mph    
Max Gust Speed 25 mph    
Visibility 10 miles    
Events Rain    
T = Trace of Precipitation, MM = Missing Value Source: NWS Daily Summary

Daily Weather History Graph

Daily Weather History Graph

Search for Another Location

Airport or City:

Trip Planner

Search our weather history database for the weather conditions in past years. The results will help you decide how hot, cold, wet, or windy it might be!

Date:

Astronomy

Oct. 30, 2013 Rise Set
Actual Time 7:25 AM CDT 6:16 PM CDT
Civil Twilight 7:00 AM CDT 6:42 PM CDT
Nautical Twilight 6:30 AM CDT 7:11 PM CDT
Astronomical Twilight 6:01 AM CDT 7:40 PM CDT
Moon 3:25 AM CDT (10/30) 3:53 PM CDT (10/30)
Length of Visible Light 11h 42m
Length of Day
10h 50m
Waning Crescent, 17% of the Moon is Illuminated
Oct 30
Waning Crescent
Nov 3
New
Nov 9
First Quarter
Nov 17
Full
Nov 25
Last Quarter

Hourly Weather History & Observations

Time (CDT) Temp. Dew Point Humidity Pressure Visibility Wind Dir Wind Speed Gust Speed Precip Events Conditions
12:53 AM 66.9 °F 61.0 °F 81% 30.11 in 10.0 mi South 8.1 mph - N/A   Clear
1:53 AM 66.0 °F 61.0 °F 84% 30.11 in 10.0 mi SSE 5.8 mph - N/A   Clear
2:53 AM 64.9 °F 61.0 °F 87% 30.11 in 10.0 mi South 3.5 mph - N/A   Clear
3:53 AM 64.9 °F 61.0 °F 87% 30.11 in 10.0 mi South 6.9 mph - N/A   Clear
4:53 AM 64.9 °F 61.0 °F 87% 30.10 in 10.0 mi SSE 4.6 mph - N/A   Mostly Cloudy
5:17 AM 64.4 °F 60.8 °F 88% 30.12 in 10.0 mi South 3.5 mph - N/A   Scattered Clouds
5:53 AM 64.0 °F 61.0 °F 90% 30.13 in 10.0 mi SSE 4.6 mph - N/A   Partly Cloudy
6:53 AM 64.0 °F 61.0 °F 90% 30.12 in 10.0 mi SSE 4.6 mph - N/A   Clear
7:53 AM 62.1 °F 60.1 °F 93% 30.13 in 8.0 mi ESE 5.8 mph - N/A   Clear
8:53 AM 63.0 °F 61.0 °F 93% 30.13 in 9.0 mi ESE 5.8 mph - N/A   Clear
9:53 AM 64.9 °F 62.1 °F 90% 30.14 in 10.0 mi ESE 5.8 mph - N/A   Clear
10:53 AM 70.0 °F 64.0 °F 81% 30.12 in 10.0 mi South 12.7 mph - N/A   Clear
11:53 AM 71.1 °F 63.0 °F 75% 30.11 in 10.0 mi South 13.8 mph - N/A   Clear
12:53 PM 71.1 °F 64.0 °F 78% 30.10 in 10.0 mi South 9.2 mph - N/A   Clear
1:53 PM 71.1 °F 64.9 °F 81% 30.06 in 10.0 mi South 11.5 mph - 0.00 in Rain Light Rain
2:53 PM 70.0 °F 66.0 °F 87% 30.03 in 10.0 mi South 12.7 mph - 0.00 in   Overcast
3:53 PM 70.0 °F 66.0 °F 87% 29.98 in 10.0 mi South 16.1 mph 23.0 mph N/A   Overcast
4:53 PM 70.0 °F 64.0 °F 81% 29.96 in 10.0 mi South 12.7 mph 20.7 mph N/A   Mostly Cloudy
5:53 PM 69.1 °F 62.1 °F 78% 29.96 in 10.0 mi South 6.9 mph - N/A   Partly Cloudy
6:53 PM 66.9 °F 63.0 °F 87% 29.98 in 10.0 mi Calm Calm - 0.01 in Rain Light Rain
7:26 PM 66.2 °F 64.4 °F 94% 30.00 in 10.0 mi Calm Calm - 0.00 in   Overcast
7:53 PM 66.9 °F 64.0 °F 90% 30.00 in 10.0 mi Calm Calm - 0.00 in   Overcast
8:53 PM 66.0 °F 64.0 °F 93% 29.98 in 10.0 mi SSE 4.6 mph - 0.00 in Rain Light Rain
9:26 PM 69.8 °F 66.2 °F 88% 29.98 in 10.0 mi South 13.8 mph - 0.00 in Rain Light Rain
9:53 PM 68.0 °F 66.0 °F 93% 29.97 in 10.0 mi South 10.4 mph - 0.01 in Rain Light Rain
10:53 PM 68.0 °F 64.9 °F 90% 29.96 in 8.0 mi South 8.1 mph - 0.02 in Rain Light Rain
11:53 PM 66.9 °F 64.9 °F 93% 29.92 in 9.0 mi South 9.2 mph - 0.04 in Rain Light Rain